Vicksburg, LA

1:40 AM CDT on June 27, 2017 (GMT -0500)
Vicksburg Tallulah Regional

Weather History for KTVR - December, 2011

Change the Weather History Date:

Wednesday, December 14, 2011

  Actual Average Record
Temperature  
Mean Temperature 63 °F 48 °F  
Max Temperature 70 °F 59 °F 79 °F (1967)
Min Temperature 55 °F 38 °F 15 °F (1962)
Degree Days  
Heating Degree Days 2 17  
Month to date heating degree days 262 222  
Since 1 July heating degree days 709 624  
Cooling Degree Days 0 0  
Month to date cooling degree days 3 0  
Year to date cooling degree days 2591 2225  
Growing Degree Days 12 (Base 50)    
Moisture  
Dew Point 57 °F    
Average Humidity 85    
Maximum Humidity 100    
Minimum Humidity 70    
Precipitation  
Precipitation 0.00 in 0.18 in 2.97 in (2005)
Month to date precipitation 1.45 2.76  
Year to date precipitation 32.85 51.89  
Sea Level Pressure  
Sea Level Pressure 30.22 in    
Wind  
Wind Speed 8 mph (SE)    
Max Wind Speed 17 mph    
Max Gust Speed 21 mph    
Visibility 9 miles    
Events      
T = Trace of Precipitation, MM = Missing Value Source: NWS Daily Summary

Daily Weather History Graph

Daily Weather History Graph

Search for Another Location

Airport or City:

Trip Planner

Search our weather history database for the weather conditions in past years. The results will help you decide how hot, cold, wet, or windy it might be!

Date:

Astronomy

Dec. 14, 2011 Rise Set
Actual Time 6:57 AM CST 5:00 PM CST
Civil Twilight 6:30 AM CST 5:27 PM CST
Nautical Twilight 5:59 AM CST 5:57 PM CST
Astronomical Twilight 5:29 AM CST 6:27 PM CST
Moon 9:09 PM CST (12/14) 9:51 AM CST (12/14)
Length of Visible Light 10h 57m
Length of Day
10h 02m
Waning Gibbous, 83% of the Moon is Illuminated
Dec 14
Waning Gibbous
Dec 17
Last Quarter
Dec 24
New
Jan 1
First Quarter
Jan 9
Full

Hourly Weather History & Observations

Time (CST) Temp. Dew Point Humidity Pressure Visibility Wind Dir Wind Speed Gust Speed Precip Events Conditions
12:29 AM 55.4 °F 53.6 °F 94% 30.29 in 10.0 mi SE 9.2 mph - N/A   Overcast
12:53 AM 55.9 °F 54.0 °F 93% 30.31 in 10.0 mi SSE 9.2 mph - N/A   Overcast
1:53 AM 55.9 °F 54.0 °F 93% 30.29 in 10.0 mi SSE 6.9 mph - N/A   Overcast
3:53 AM 55.9 °F 55.0 °F 97% 30.27 in 10.0 mi South 4.6 mph - N/A   Overcast
4:53 AM 55.9 °F 54.0 °F 93% 30.27 in 9.0 mi SE 4.6 mph - N/A   Overcast
6:53 AM 55.0 °F 54.0 °F 96% 30.27 in 6.0 mi East 4.6 mph - N/A   Overcast
7:22 AM 55.4 °F 53.6 °F 94% 30.25 in 5.0 mi East 4.6 mph - N/A   Overcast
7:53 AM 55.9 °F 55.0 °F 97% 30.28 in 6.0 mi East 4.6 mph - N/A   Overcast
8:01 AM 57.2 °F 55.4 °F 94% 30.26 in 6.0 mi East 4.6 mph - N/A   Overcast
8:53 AM 57.0 °F 55.0 °F 93% 30.29 in 8.0 mi East 6.9 mph - N/A   Overcast
9:14 AM 59.0 °F 55.4 °F 88% 30.27 in 9.0 mi East 6.9 mph - N/A   Overcast
9:34 AM 59.0 °F 55.4 °F 88% 30.27 in 9.0 mi ESE 8.1 mph - N/A   Overcast
9:53 AM 60.1 °F 55.9 °F 86% 30.30 in 10.0 mi SE 6.9 mph - N/A   Overcast
10:53 AM 62.1 °F 57.0 °F 84% 30.28 in 10.0 mi SSE 8.1 mph - N/A   Overcast
11:53 AM 64.0 °F 57.0 °F 78% 30.25 in 10.0 mi SSE 8.1 mph - N/A   Overcast
12:18 PM 64.4 °F 57.2 °F 77% 30.21 in 10.0 mi SSE 8.1 mph - N/A   Overcast
12:53 PM 68.0 °F 59.0 °F 73% 30.22 in 10.0 mi SSE 10.4 mph - N/A   Overcast
1:09 PM 68.0 °F 59.0 °F 73% 30.18 in 10.0 mi South 10.4 mph - N/A   Overcast
1:53 PM 69.1 °F 60.1 °F 73% 30.18 in 10.0 mi South 15.0 mph - N/A   Overcast
2:53 PM 69.1 °F 59.0 °F 70% 30.17 in 10.0 mi South 15.0 mph - N/A   Scattered Clouds
3:53 PM 69.1 °F 59.0 °F 70% 30.15 in 10.0 mi SSE 9.2 mph - N/A   Clear
4:53 PM 66.0 °F 57.9 °F 75% 30.14 in 10.0 mi SSE 8.1 mph - N/A   Clear
5:53 PM 63.0 °F 57.9 °F 84% 30.14 in 10.0 mi SSE 8.1 mph - N/A   Clear
6:53 PM 62.1 °F 57.0 °F 84% 30.14 in 10.0 mi SSE 6.9 mph - N/A   Clear
7:53 PM 62.1 °F 57.9 °F 86% 30.12 in 10.0 mi SE 9.2 mph - N/A   Clear
8:53 PM 62.1 °F 57.9 °F 86% 30.14 in 10.0 mi South 8.1 mph - N/A   Clear
9:53 PM 62.1 °F 59.0 °F 90% 30.13 in 10.0 mi SSE 9.2 mph - N/A   Clear
10:49 PM 62.6 °F 60.8 °F 94% 30.12 in 10.0 mi SSE 10.4 mph - N/A   Mostly Cloudy
10:53 PM 63.0 °F 61.0 °F 93% 30.14 in 10.0 mi SSE 10.4 mph - N/A   Mostly Cloudy
11:53 PM 64.0 °F 61.0 °F 90% 30.13 in 10.0 mi SSE 8.1 mph - N/A   Overcast